SCP
-0 0 0 -0 -0 -0 -0 0 0 0 0 0 0 0 0 0 0 0 0 0 0 0 0 0 0 0 0 0 0 0 0 0 0 0 0 0 0 0 0 -0 -0 0 0 0 0
0 0 -0 -0 0 0 0 0 0 0 0 0 0 0 0 0 0 0 0 0 0 0 0 0 0 0 0 0 0 0 0 0 0 0 0 0 0 0 0 0 0 0 0 0 0
0 0 0 -0 -0 0 0 0 0 0 0 0 0 0 0 0 0 0 0 0 0 0 0 0 0 0 0 0 0 0 0 0 0 0 0 0 0 0 0 -0 -0 0 0 0 0
0 0 0 0 0 0 0 0 0 0 0 0 0 0 0 0 0 0 0 0 0 0 0 0 0 0 0 0 0 0 0 0 0 0 0 0 0 0 0 -0 -0 0 0 0 0
0 0 0 0 0 0 0 0 0 0 0 0 0 0 0 0 -0 0 0 0 0 0 0 0 0 0 0 0 0 0 0 0 0 0 0 0 0 0 0 -0 -0 -0 0 0 0
0 0 0 0 0 0 0 0 0 0 0 0 0 0 0 0 0 0 0 0 0 0 0 0 0 0 0 0 0 0 0 0 0 0 0 0 0 0 0 -0 -0 -0 0 0 0
0 0 0 0 0 0 0 0 0 0 0 0 0 0 0 -0 0 0 0 0 0 0 0 0 0 0 0 0 0 0 0 0 -0 0 0 0 0 0 0 0 -0 -0 -0 0 0
0 0 0 0 0 0 0 0 0 0 0 0 0 0 0 0 0 0 0 0 0 0 0 0 0 0 0 0 0 0 0 0 0 0 0 -0 0 0 0 0 0 -0 -0 -0 -0
0 0 0 0 0 0 0 0 0 0 0 0 0 0 0 0 0 0 0 0 0 0 0 0 0 0 0 0 0 0 0 0 0 0 0 0 -0 -0 0 0 0 0 0 -0 -0
0 0 0 0 0 0 0 0 0 0 0 0 0 0 0 0 0 0 0 0 0 0 0 0 0 0 0 0 0 0 0 0 0 0 0 0 0 0 0 0 0 0 0 0 -0
0 0 0 0 0 0 0 0 0 0 0 0 0 0 0 0 0 0 0 0 0 0 0 0 0 0 0 0 0 0 0 0 0 0 0 0 0 0 0 0 0 0 0 0 0
0 0 0 0 0 0 0 0 0 0 0 0 0 0 0 0 0 0 0 0 0 0 0 0 0 0 0 0 0 0 0 -0 -0 -0 0 0 0 0 0 0 -0 0 0 0 0
0 0 0 0 0 0 0 0 0 0 0 0 0 0 0 0 0 0 0 0 0 0 0 0 0 0 0 0 0 0 0 -0 -0 -0 -0 0 -0 -0 0 0 0 0 0 0 0
0 0 0 0 0 0 0 0 0 0 0 0 0 0 0 0 0 -0 0 0 0 0 0 0 0 0 0 0 0 0 0 0 -0 0 0 0 -0 -0 -0 0 0 0 0 0 0
0 0 0 0 0 0 0 0 0 0 0 0 0 0 0 0 0 0 0 0 0 0 0 0 0 0 0 0 0 0 0 0 -0 0 0 0 0 0 -0 -0 0 0 0 0 0
0 0 0 0 0 0 0 0 0 0 0 0 0 0 0 0 0 0 0 0 0 0 0 0 0 0 0 0 0 0 0 0 0 0 0 -0 0 -0 -0 -0 0 0 0 0 0
0 0 0 0 0 0 0 0 0 0 0 0 0 0 0 0 0 0 0 0 0 0 0 0 0 0 0 0 0 0 0 0 0 0 0 0 0 -0 0 -0 0 0 0 0 0
0 0 0 0 0 0 0 0 0 0 0 0 0 0 0 0 0 0 0 0 0 0 0 0 0 0 0 0 0 0 0 0 0 0 0 0 0 0 0 0 0 0 0 0 0
0 0 0 0 0 0 0 0 0 0 0 0 0 0 0 0 0 0 0 0 0 0 0 0 0 0 0 0 0 0 -0 0 0 0 0 0 0 0 0 -0 -0 0 0 0 0
0 0 0 0 0 0 0 0 0 0 0 0 0 0 0 0 0 0 0 0 0 0 0 0 0 0 0 0 0 0 0 0 0 0 0 0 0 -0 -0 -0 -0 0 0 0 0
0 0 0 0 0 0 0 0 0 0 0 0 0 0 0 0 0 0 0 0 0 0 0 0 0 0 0 0 0 0 0 0 0 0 0 0 0 -0 -0 -0 0 0 0 0 0
0 0 0 0 0 0 0 0 0 0 0 0 0 0 0 0 0 0 0 0 0 0 0 0 0 0 0 0 0 -0 0 0 0 0 0 0 0 -0 -0 -0 0 0 0 0 0
0 0 0 0 0 0 0 0 0 0 0 0 0 0 0 0 0 0 0 0 0 0 0 0 0 0 0 0 0 0 0 0 0 0 0 0 0 0 0 0 0 0 0 0 0
0 0 0 0 0 0 0 0 0 0 0 0 0 0 0 0 0 0 0 0 0 0 0 0 0 0 0 0 0 0 -0 0 0 0 0 0 0 0 -0 0 0 0 0 0 0
0 0 0 0 0 0 0 0 0 0 0 0 0 0 0 0 0 0 0 0 0 0 0 0 0 0 0 0 0 -0 0 0 0 0 0 0 0 0 -0 0 0 0 0 -0 0
0 0 0 0 0 0 0 0 0 0 0 0 0 0 0 0 0 0 0 0 0 0 0 0 0 0 0 0 0 0 0 0 0 0 0 0 0 0 0 0 0 0 0 0 0
0 0 0 0 0 0 0 0 0 0 0 0 0 0 0 0 0 0 0 0 0 0 0 0 0 0 0 0 0 0 0 0 0 0 0 0 0 0 0 0 0 0 0 0 0
Wind_Speed_500mb
24 24 26 28 30 32 35 37 38 38 40 41 41 42 40 48 43 15 11 5 11 33 34 32 23 21 17 13 14 12 5 9 10 3 11 21 15 10 28 16 33 24 16 30 36
25 25 26 27 29 32 34 36 39 40 40 42 44 45 40 43 29 17 13 8 26 34 33 29 28 33 14 9 14 6 7 9 11 11 8 23 22 34 16 27 17 28 15 7 32
22 24 25 28 32 34 37 39 42 43 44 47 47 44 38 33 10 5 12 21 26 30 23 21 17 19 9 13 11 10 10 12 25 40 38 13 27 24 17 8 6 29 53 39 19
21 24 27 30 32 36 39 42 44 44 45 46 42 37 33 19 6 13 21 25 29 18 23 23 17 16 6 9 15 12 23 24 19 30 30 20 28 21 36 38 40 32 47 39 31
21 24 28 32 36 39 42 44 45 46 48 43 34 31 31 15 5 16 24 34 29 20 21 21 16 9 7 13 25 15 20 28 37 48 45 43 24 33 55 43 35 29 37 48 53
22 27 30 34 39 41 44 42 47 50 40 32 28 27 17 5 15 21 30 32 27 25 31 27 15 27 27 11 13 16 30 40 45 44 37 31 32 34 46 43 45 47 49 51 57
23 28 33 37 41 45 45 46 51 44 32 21 28 16 7 3 17 23 23 35 37 38 42 37 29 24 16 12 29 17 26 33 39 31 17 26 24 35 37 66 57 48 49 44 55
26 30 34 39 45 50 47 48 42 34 14 30 12 16 6 10 20 29 48 55 35 29 31 35 41 39 42 30 17 13 9 13 28 6 16 15 34 17 36 56 60 57 49 55 53
27 32 36 43 50 49 53 52 38 17 11 19 6 14 7 18 34 51 42 34 41 44 41 43 40 39 17 10 15 14 16 19 32 10 17 14 20 13 40 55 54 57 52 49 49
28 33 40 46 53 49 57 50 35 4 28 1 8 11 9 31 46 52 41 37 46 45 26 12 11 7 2 12 18 12 14 16 22 1 19 36 34 23 38 34 43 46 36 39 44
29 34 40 47 49 50 61 37 34 6 15 9 11 10 30 37 54 52 45 46 28 10 7 15 9 24 23 27 34 31 38 43 38 33 24 36 36 35 27 35 36 46 35 37 32
30 35 41 46 38 47 50 34 29 17 17 10 13 24 28 37 39 59 29 14 9 15 12 8 22 34 24 30 32 33 36 37 28 29 21 31 34 32 28 27 40 52 50 40 49
31 37 41 44 28 46 42 44 33 4 7 12 17 15 21 53 35 33 32 22 9 14 11 18 32 35 26 22 25 26 33 39 37 28 19 16 43 36 40 40 47 59 64 48 47
31 37 43 39 19 42 31 43 26 3 7 13 14 10 28 67 5 39 23 17 16 13 18 18 14 18 35 32 28 27 22 28 33 26 18 16 18 29 17 29 33 47 59 49 48
32 37 42 36 30 40 43 37 13 3 11 27 12 11 74 13 31 9 46 27 16 16 2 16 45 36 29 18 23 18 22 24 26 25 22 28 15 24 17 27 35 37 62 60 48
30 36 39 29 35 41 38 25 9 12 10 16 14 20 27 14 18 22 26 26 17 11 16 31 42 5 2 30 28 29 26 31 27 14 14 24 20 24 23 42 23 31 55 58 43
30 36 36 26 40 40 35 12 10 14 11 20 16 20 26 14 14 15 17 13 13 13 31 18 11 5 10 22 14 1 9 7 8 2 10 7 18 29 21 19 36 35 51 61 54
28 34 27 25 38 36 26 10 19 8 12 9 12 22 9 20 8 24 15 12 13 4 17 11 17 11 17 8 13 15 5 5 9 7 6 8 11 9 9 22 39 52 56 52 48
29 30 13 30 34 29 10 13 13 13 6 14 20 10 11 9 3 15 9 6 6 18 7 10 12 6 21 9 16 11 19 30 14 8 7 7 9 14 28 38 35 20 37 43 44
29 25 9 29 26 18 11 4 5 8 4 7 3 3 8 11 15 13 11 4 11 18 22 7 15 8 19 12 4 9 20 13 8 7 7 4 7 17 50 54 33 14 18 36 44
26 10 13 27 15 9 7 11 9 11 4 6 7 9 11 11 6 8 9 13 7 25 35 12 8 14 15 11 19 16 18 10 11 11 5 7 2 29 49 49 20 21 16 15 39
12 6 17 22 10 7 5 10 5 8 2 5 8 11 10 7 9 6 8 4 25 33 18 6 7 10 19 11 3 15 28 12 6 9 8 5 5 40 55 41 25 26 33 46 48
14 3 11 13 6 5 9 7 6 5 1 2 7 8 2 7 8 8 8 14 34 31 9 15 5 11 15 4 21 14 46 38 6 4 21 9 12 42 54 42 40 42 58 59 72
6 5 6 11 13 10 4 6 10 8 5 8 11 10 7 7 8 12 14 14 53 23 7 29 5 6 6 7 13 25 45 45 26 9 14 18 29 48 55 49 43 54 74 80 87
3 4 2 3 5 3 5 7 5 10 1 6 7 5 4 8 8 7 10 30 14 6 17 9 6 9 16 6 14 40 32 46 42 32 16 24 28 43 43 38 41 60 83 94 95
4 6 5 4 5 1 3 4 3 9 4 8 6 8 10 10 13 16 23 9 10 12 13 5 6 6 4 15 11 32 38 33 36 38 20 25 28 37 54 51 78 74 83 87 87
7 7 3 0 4 6 5 6 4 4 8 23 18 12 5 15 28 50 43 46 38 17 9 8 5 7 7 6 2 11 41 20 27 36 20 20 19 31 34 48 67 72 80 81 86
Wind_Direction_500mb
36 29 26 23 19 10 3 358 351 346 342 336 334 335 339 337 344 7 71 59 324 327 330 335 340 355 337 278 257 235 273 269 260 248 291 327 360 320 319 275 322 300 325 293 192
32 27 20 14 10 4 356 348 342 338 333 329 332 335 339 340 351 56 37 7 333 330 336 359 3 355 346 284 296 198 221 252 224 331 306 301 312 315 322 314 306 300 336 344 194
27 23 15 9 3 355 347 343 336 333 330 329 331 332 337 342 340 355 346 322 330 327 339 350 350 347 304 306 257 295 253 310 309 306 301 291 302 293 294 289 113 330 315 324 315
21 16 9 4 356 347 342 337 332 328 326 326 328 328 339 350 6 317 326 323 328 331 335 345 332 327 265 274 288 328 279 280 290 315 321 312 303 284 263 267 283 292 306 318 300
12 8 3 357 348 343 338 336 328 325 327 330 328 328 340 338 309 336 332 330 323 317 347 326 316 310 249 279 300 256 272 296 302 303 296 297 282 280 281 288 288 287 287 291 294
5 1 356 351 345 340 339 336 324 323 329 330 329 323 336 314 1 337 333 334 329 300 306 309 288 298 278 262 231 279 307 298 297 285 283 271 269 275 271 290 292 292 292 290 286
357 354 353 349 343 342 343 337 323 324 329 327 331 331 311 17 350 340 327 323 314 302 295 295 288 273 279 293 282 287 305 297 279 278 252 273 277 257 291 288 287 283 284 289 287
352 350 351 345 343 344 346 341 324 326 317 330 347 342 266 343 343 329 323 317 315 297 287 289 288 278 256 254 289 272 244 279 274 240 248 201 262 273 274 275 279 279 275 279 272
349 349 348 347 344 344 347 345 330 331 293 336 349 347 313 337 333 333 334 321 318 308 294 290 272 260 239 230 279 219 267 243 284 209 263 203 277 281 285 262 264 270 273 272 275
346 348 348 347 342 345 349 349 346 319 344 102 352 314 336 325 332 328 342 321 312 310 322 275 243 242 242 210 260 240 240 248 257 230 309 293 283 273 280 281 264 275 279 288 263
345 347 349 347 341 347 352 8 15 311 7 324 304 275 318 332 332 327 338 319 303 284 299 269 249 250 252 233 245 263 265 270 268 278 277 265 271 275 262 264 277 281 281 283 289
341 346 350 347 344 352 350 26 8 325 320 13 326 310 346 339 316 329 334 310 315 292 301 308 261 273 268 272 278 282 293 283 275 272 248 274 276 275 267 254 250 266 272 267 281
342 344 349 349 343 351 356 2 352 311 267 319 343 334 343 335 311 311 330 314 270 286 279 271 269 297 295 299 288 266 268 273 269 286 274 278 273 275 263 249 248 254 260 256 257
340 345 346 355 357 349 349 345 340 10 61 312 356 16 340 335 285 331 333 310 317 284 283 274 267 278 308 294 283 285 280 278 271 267 264 194 283 266 255 240 240 246 255 251 247
339 344 345 353 354 352 338 337 341 308 34 311 333 338 332 341 313 308 334 322 272 294 28 281 305 310 313 298 306 254 307 291 280 259 270 239 252 259 222 237 234 228 242 252 243
337 341 345 348 354 348 335 334 332 40 313 337 339 333 348 314 312 313 332 0 306 304 285 286 298 249 310 300 278 270 281 271 257 238 244 228 207 271 223 229 244 235 240 240 233
334 339 343 352 350 345 337 332 37 94 354 311 327 343 332 311 317 6 334 12 30 346 340 330 303 289 30 311 320 111 285 308 352 343 231 272 203 250 292 262 233 232 229 230 228
329 336 340 350 349 340 343 44 62 237 249 345 322 321 322 3 334 330 335 356 46 355 310 342 327 10 337 319 274 312 286 268 278 227 246 174 240 250 28 336 297 246 232 229 223
328 335 344 352 347 344 341 49 197 212 271 339 328 8 319 328 268 339 333 301 50 34 24 320 281 275 301 349 342 341 354 293 257 213 257 217 279 293 354 311 300 258 219 220 221
329 334 350 353 343 356 64 202 208 236 342 63 354 95 300 298 341 355 324 322 332 22 27 273 290 307 337 349 309 320 348 325 338 286 268 277 284 348 335 330 337 175 171 210 223
329 324 352 349 349 30 105 225 266 272 300 127 222 291 257 299 281 302 284 299 24 347 336 278 237 293 328 5 320 347 346 338 281 259 283 317 74 355 340 327 7 53 98 213 221
328 343 345 348 34 40 111 195 288 283 339 291 228 234 234 307 292 278 277 280 336 349 322 305 286 294 310 283 308 15 349 328 264 340 328 284 47 358 345 331 41 61 78 78 104
318 347 359 2 84 331 317 290 263 270 248 9 275 204 158 266 324 241 284 274 316 339 335 352 322 318 348 2 7 9 360 358 312 255 16 15 328 343 349 359 31 64 68 74 81
307 34 10 54 84 128 129 301 308 293 252 255 262 296 359 323 242 281 296 303 319 325 4 336 278 252 265 328 352 3 13 10 17 23 324 29 344 348 350 357 25 49 66 68 69
318 99 145 285 10 114 129 172 285 335 245 296 297 220 152 300 309 246 265 317 305 8 351 346 281 312 313 213 51 33 16 16 25 2 29 348 10 5 354 355 17 50 62 63 62
248 148 126 106 114 187 353 240 275 300 170 279 199 262 192 218 195 289 315 339 281 324 332 337 295 319 347 144 91 39 19 24 25 7 354 358 31 14 0 16 31 34 54 56 59
199 189 197 73 112 89 227 238 223 334 246 241 277 313 259 237 277 276 268 258 261 295 306 314 306 352 303 244 70 15 13 16 33 24 344 11 334 339 9 29 27 29 44 50 54
Wind_Speed_850mb
24 24 26 28 30 32 35 37 38 38 40 41 41 42 40 48 43 15 11 5 11 33 34 32 23 21 17 13 14 12 5 9 10 3 11 21 15 10 28 16 33 24 16 30 36
25 25 26 27 29 32 34 36 39 40 40 42 44 45 40 43 29 17 13 8 26 34 33 29 28 33 14 9 14 6 7 9 11 11 8 23 22 34 16 27 17 28 15 7 32
22 24 25 28 32 34 37 39 42 43 44 47 47 44 38 33 10 5 12 21 26 30 23 21 17 19 9 13 11 10 10 12 25 40 38 13 27 24 17 8 6 29 53 39 19
21 24 27 30 32 36 39 42 44 44 45 46 42 37 33 19 6 13 21 25 29 18 23 23 17 16 6 9 15 12 23 24 19 30 30 20 28 21 36 38 40 32 47 39 31
21 24 28 32 36 39 42 44 45 46 48 43 34 31 31 15 5 16 24 34 29 20 21 21 16 9 7 13 25 15 20 28 37 48 45 43 24 33 55 43 35 29 37 48 53
22 27 30 34 39 41 44 42 47 50 40 32 28 27 17 5 15 21 30 32 27 25 31 27 15 27 27 11 13 16 30 40 45 44 37 31 32 34 46 43 45 47 49 51 57
23 28 33 37 41 45 45 46 51 44 32 21 28 16 7 3 17 23 23 35 37 38 42 37 29 24 16 12 29 17 26 33 39 31 17 26 24 35 37 66 57 48 49 44 55
26 30 34 39 45 50 47 48 42 34 14 30 12 16 6 10 20 29 48 55 35 29 31 35 41 39 42 30 17 13 9 13 28 6 16 15 34 17 36 56 60 57 49 55 53
27 32 36 43 50 49 53 52 38 17 11 19 6 14 7 18 34 51 42 34 41 44 41 43 40 39 17 10 15 14 16 19 32 10 17 14 20 13 40 55 54 57 52 49 49
28 33 40 46 53 49 57 50 35 4 28 1 8 11 9 31 46 52 41 37 46 45 26 12 11 7 2 12 18 12 14 16 22 1 19 36 34 23 38 34 43 46 36 39 44
29 34 40 47 49 50 61 37 34 6 15 9 11 10 30 37 54 52 45 46 28 10 7 15 9 24 23 27 34 31 38 43 38 33 24 36 36 35 27 35 36 46 35 37 32
30 35 41 46 38 47 50 34 29 17 17 10 13 24 28 37 39 59 29 14 9 15 12 8 22 34 24 30 32 33 36 37 28 29 21 31 34 32 28 27 40 52 50 40 49
31 37 41 44 28 46 42 44 33 4 7 12 17 15 21 53 35 33 32 22 9 14 11 18 32 35 26 22 25 26 33 39 37 28 19 16 43 36 40 40 47 59 64 48 47
31 37 43 39 19 42 31 43 26 3 7 13 14 10 28 67 5 39 23 17 16 13 18 18 14 18 35 32 28 27 22 28 33 26 18 16 18 29 17 29 33 47 59 49 48
32 37 42 36 30 40 43 37 13 3 11 27 12 11 74 13 31 9 46 27 16 16 2 16 45 36 29 18 23 18 22 24 26 25 22 28 15 24 17 27 35 37 62 60 48
30 36 39 29 35 41 38 25 9 12 10 16 14 20 27 14 18 22 26 26 17 11 16 31 42 5 2 30 28 29 26 31 27 14 14 24 20 24 23 42 23 31 55 58 43
30 36 36 26 40 40 35 12 10 14 11 20 16 20 26 14 14 15 17 13 13 13 31 18 11 5 10 22 14 1 9 7 8 2 10 7 18 29 21 19 36 35 51 61 54
28 34 27 25 38 36 26 10 19 8 12 9 12 22 9 20 8 24 15 12 13 4 17 11 17 11 17 8 13 15 5 5 9 7 6 8 11 9 9 22 39 52 56 52 48
29 30 13 30 34 29 10 13 13 13 6 14 20 10 11 9 3 15 9 6 6 18 7 10 12 6 21 9 16 11 19 30 14 8 7 7 9 14 28 38 35 20 37 43 44
29 25 9 29 26 18 11 4 5 8 4 7 3 3 8 11 15 13 11 4 11 18 22 7 15 8 19 12 4 9 20 13 8 7 7 4 7 17 50 54 33 14 18 36 44
26 10 13 27 15 9 7 11 9 11 4 6 7 9 11 11 6 8 9 13 7 25 35 12 8 14 15 11 19 16 18 10 11 11 5 7 2 29 49 49 20 21 16 15 39
12 6 17 22 10 7 5 10 5 8 2 5 8 11 10 7 9 6 8 4 25 33 18 6 7 10 19 11 3 15 28 12 6 9 8 5 5 40 55 41 25 26 33 46 48
14 3 11 13 6 5 9 7 6 5 1 2 7 8 2 7 8 8 8 14 34 31 9 15 5 11 15 4 21 14 46 38 6 4 21 9 12 42 54 42 40 42 58 59 72
6 5 6 11 13 10 4 6 10 8 5 8 11 10 7 7 8 12 14 14 53 23 7 29 5 6 6 7 13 25 45 45 26 9 14 18 29 48 55 49 43 54 74 80 87
3 4 2 3 5 3 5 7 5 10 1 6 7 5 4 8 8 7 10 30 14 6 17 9 6 9 16 6 14 40 32 46 42 32 16 24 28 43 43 38 41 60 83 94 95
4 6 5 4 5 1 3 4 3 9 4 8 6 8 10 10 13 16 23 9 10 12 13 5 6 6 4 15 11 32 38 33 36 38 20 25 28 37 54 51 78 74 83 87 87
7 7 3 0 4 6 5 6 4 4 8 23 18 12 5 15 28 50 43 46 38 17 9 8 5 7 7 6 2 11 41 20 27 36 20 20 19 31 34 48 67 72 80 81 86
Wind_Direction_850mb
36 29 26 23 19 10 3 358 351 346 342 336 334 335 339 337 344 7 71 59 324 327 330 335 340 355 337 278 257 235 273 269 260 248 291 327 360 320 319 275 322 300 325 293 192
32 27 20 14 10 4 356 348 342 338 333 329 332 335 339 340 351 56 37 7 333 330 336 359 3 355 346 284 296 198 221 252 224 331 306 301 312 315 322 314 306 300 336 344 194
27 23 15 9 3 355 347 343 336 333 330 329 331 332 337 342 340 355 346 322 330 327 339 350 350 347 304 306 257 295 253 310 309 306 301 291 302 293 294 289 113 330 315 324 315
21 16 9 4 356 347 342 337 332 328 326 326 328 328 339 350 6 317 326 323 328 331 335 345 332 327 265 274 288 328 279 280 290 315 321 312 303 284 263 267 283 292 306 318 300
12 8 3 357 348 343 338 336 328 325 327 330 328 328 340 338 309 336 332 330 323 317 347 326 316 310 249 279 300 256 272 296 302 303 296 297 282 280 281 288 288 287 287 291 294
5 1 356 351 345 340 339 336 324 323 329 330 329 323 336 314 1 337 333 334 329 300 306 309 288 298 278 262 231 279 307 298 297 285 283 271 269 275 271 290 292 292 292 290 286
357 354 353 349 343 342 343 337 323 324 329 327 331 331 311 17 350 340 327 323 314 302 295 295 288 273 279 293 282 287 305 297 279 278 252 273 277 257 291 288 287 283 284 289 287
352 350 351 345 343 344 346 341 324 326 317 330 347 342 266 343 343 329 323 317 315 297 287 289 288 278 256 254 289 272 244 279 274 240 248 201 262 273 274 275 279 279 275 279 272
349 349 348 347 344 344 347 345 330 331 293 336 349 347 313 337 333 333 334 321 318 308 294 290 272 260 239 230 279 219 267 243 284 209 263 203 277 281 285 262 264 270 273 272 275
346 348 348 347 342 345 349 349 346 319 344 102 352 314 336 325 332 328 342 321 312 310 322 275 243 242 242 210 260 240 240 248 257 230 309 293 283 273 280 281 264 275 279 288 263
345 347 349 347 341 347 352 8 15 311 7 324 304 275 318 332 332 327 338 319 303 284 299 269 249 250 252 233 245 263 265 270 268 278 277 265 271 275 262 264 277 281 281 283 289
341 346 350 347 344 352 350 26 8 325 320 13 326 310 346 339 316 329 334 310 315 292 301 308 261 273 268 272 278 282 293 283 275 272 248 274 276 275 267 254 250 266 272 267 281
342 344 349 349 343 351 356 2 352 311 267 319 343 334 343 335 311 311 330 314 270 286 279 271 269 297 295 299 288 266 268 273 269 286 274 278 273 275 263 249 248 254 260 256 257
340 345 346 355 357 349 349 345 340 10 61 312 356 16 340 335 285 331 333 310 317 284 283 274 267 278 308 294 283 285 280 278 271 267 264 194 283 266 255 240 240 246 255 251 247
339 344 345 353 354 352 338 337 341 308 34 311 333 338 332 341 313 308 334 322 272 294 28 281 305 310 313 298 306 254 307 291 280 259 270 239 252 259 222 237 234 228 242 252 243
337 341 345 348 354 348 335 334 332 40 313 337 339 333 348 314 312 313 332 0 306 304 285 286 298 249 310 300 278 270 281 271 257 238 244 228 207 271 223 229 244 235 240 240 233
334 339 343 352 350 345 337 332 37 94 354 311 327 343 332 311 317 6 334 12 30 346 340 330 303 289 30 311 320 111 285 308 352 343 231 272 203 250 292 262 233 232 229 230 228
329 336 340 350 349 340 343 44 62 237 249 345 322 321 322 3 334 330 335 356 46 355 310 342 327 10 337 319 274 312 286 268 278 227 246 174 240 250 28 336 297 246 232 229 223
328 335 344 352 347 344 341 49 197 212 271 339 328 8 319 328 268 339 333 301 50 34 24 320 281 275 301 349 342 341 354 293 257 213 257 217 279 293 354 311 300 258 219 220 221
329 334 350 353 343 356 64 202 208 236 342 63 354 95 300 298 341 355 324 322 332 22 27 273 290 307 337 349 309 320 348 325 338 286 268 277 284 348 335 330 337 175 171 210 223
329 324 352 349 349 30 105 225 266 272 300 127 222 291 257 299 281 302 284 299 24 347 336 278 237 293 328 5 320 347 346 338 281 259 283 317 74 355 340 327 7 53 98 213 221
328 343 345 348 34 40 111 195 288 283 339 291 228 234 234 307 292 278 277 280 336 349 322 305 286 294 310 283 308 15 349 328 264 340 328 284 47 358 345 331 41 61 78 78 104
318 347 359 2 84 331 317 290 263 270 248 9 275 204 158 266 324 241 284 274 316 339 335 352 322 318 348 2 7 9 360 358 312 255 16 15 328 343 349 359 31 64 68 74 81
307 34 10 54 84 128 129 301 308 293 252 255 262 296 359 323 242 281 296 303 319 325 4 336 278 252 265 328 352 3 13 10 17 23 324 29 344 348 350 357 25 49 66 68 69
318 99 145 285 10 114 129 172 285 335 245 296 297 220 152 300 309 246 265 317 305 8 351 346 281 312 313 213 51 33 16 16 25 2 29 348 10 5 354 355 17 50 62 63 62
248 148 126 106 114 187 353 240 275 300 170 279 199 262 192 218 195 289 315 339 281 324 332 337 295 319 347 144 91 39 19 24 25 7 354 358 31 14 0 16 31 34 54 56 59
199 189 197 73 112 89 227 238 223 334 246 241 277 313 259 237 277 276 268 258 261 295 306 314 306 352 303 244 70 15 13 16 33 24 344 11 334 339 9 29 27 29 44 50 54